Regional Weather Roundup
Issued by NWS Green Bay, WI

Home | Current Version | Previous Version | Graphics & Text | Print | Product List | Glossary Off
Versions: 1 2 3 4 5 6 7 8 9 10 11 12 13 14 15 16 17 18 19 20 21 22 23 24 25 26 27 28 29 30 31 32 33 34 35 36 37 38 39 40 41 42 43 44 45 46 47 48 49 50

000
ASUS43 KGRB 242211
RWRGRB

NORTH-CENTRAL AND NORTHEAST WISCONSIN REGIONAL WEATHER ROUNDUP
NATIONAL WEATHER SERVICE GREEN BAY WI
500 PM CDT TUE MAY 24 2016

WIZ005-009-010>012-018-019-242300-
NORTH CENTRAL WISCONSIN

CITY           SKY/WX    TMP DP  RH WIND       PRES   REMARKS
IRONWOOD       NOT AVBL
MANITOWISH WTR MOSUNNY   75  54  47 SW9       29.88S
ARBOR VITAE    SUNNY     77  54  43 W8        29.89S
EAGLE RIVER      N/A     75  56  50 SW7       29.89S
LAND O LAKES   MOSUNNY   76  53  44 W9        29.89F
RHINELANDER    MOSUNNY   77  55  46 W10       29.90F
PHILLIPS       MOSUNNY   78  57  48 W6        29.89S
ANTIGO         PTSUNNY   75  58  54 W8        29.92S
TOMAHAWK       CLOUDY    76  55  47 W6        29.91S
MERRILL        MOSUNNY   77  57  50 W12       29.91S
$$

WIZ013-073-242300-
NORTHEAST WISCONSIN

CITY           SKY/WX    TMP DP  RH WIND       PRES   REMARKS
IRON MOUNTAIN  PTSUNNY   72  62  71 NW3       29.89F
MARINETTE      PTSUNNY   72  63  73 CALM      29.89S
OCONTO         PTSUNNY   78  61  54 W10       29.88S
$$

WIZ017-030-035>037-045-242300-
CENTRAL WISCONSIN

CITY           SKY/WX    TMP DP  RH WIND       PRES   REMARKS
MEDFORD        PTSUNNY   75  60  58 SW8       29.91S
WAUSAU         MOSUNNY   80  54  40 W13       29.90R
MOSINEE        MOSUNNY   79  55  44 W12       29.92
MARSHFIELD     MOSUNNY   79  55  43 W10       29.91R
WISC RAPIDS    MOSUNNY   82  55  39 SW6       29.92S
STEVENS POINT  MOSUNNY   79  55  43 W9        29.91S
WAUPACA        MOSUNNY   83  56  39 SW8       29.91R
SHAWANO        MOSUNNY   79  65  62 NW6       29.90S
CLINTONVILLE   MOSUNNY   82  50  32 W12       29.89S
WAUTOMA        NOT AVBL
$$

WIZ038-039-048-051-242300-
FOX VALLEY

CITY           SKY/WX    TMP DP  RH WIND       PRES   REMARKS
NWS GREEN BAY  MOSUNNY   82  57  42 W15       29.89R
APPLETON       PTSUNNY   81  55  41 SW13      29.89S
OSHKOSH        PTSUNNY   81  58  45 W8        29.91R
FOND DU LAC    PTSUNNY   81  58  45 SW10      29.91R
$$

WIZ022-050-052-242300-
EAST CENTRAL WISCONSIN

CITY           SKY/WX    TMP DP  RH WIND       PRES   REMARKS
EPHRAIM        LGT RAIN  69  60  72 N15G21    29.90R
STURGEON BAY   NOT AVBL
MANITOWOC      PTSUNNY   70  59  68 S17       29.92R
SHEBOYGAN      CLOUDY    73  63  70 SE9       29.93R
$$

LMZ563-521-522-541>543-242300-
LAKESHORE

STATION/POSITION TIME  TEMP    WIND        PRES    VSBY  WAVE
                       AIR SEA DIR/SP/G                  HT/PER
                 (UTC) (F)     (DEG/KT/KT) (MB)    (MI)  (FT/S)
SHEBOYGAN LKSHOR 2200   62     170/  8/  9 1013.7S
KEWAUNEE LKSHORE 2112          180/ 14/ 16 1012.0F
ALGOMA MARINA    2117          210/ 12/ 13   N/A
NORTHPORT PIER   2100   61     150/  6/ 12 1012.5R
N MID LAKE BUOY  2150   48 44  300/  2/  4 1012.8R         2/ 4
SISTER BAY LKSHO 2134   74     160/ 10/ 12   N/A
CHAMBERS ISLAND  2100   73     130/  4/  9 1011.9
MENOMINEE LKSHOR 2100   63     140/ 12/ 13   N/A
$$




USA.gov is the U.S. government's official web portal to all federal, state and local government web resources and services.